Flag for South Korea Weather past 2 weeks in Seoul, South Korea

Now
75 °F

Clear.


Feels Like: 77 °F
Forecast: 66 / 80 °F
Wind: 6 mph from North

Location: Seoul / Kimp'O International Airport

Current Time: Sep 1, 2015 at 9:42:24 AM

Latest Report: Sep 1, 2015 at 9:00 AM


Visibility: 6 mi

Pressure: 29.83 "Hg

Humidity: 65%

Dew point: 63 °F

Location of SeoulLocation

Historic Weather in Seoul — Graph

°F

Seoul temperature yesterday

Maximum temperature yesterday: 86 °F (at 4:00 PM)
Minimum temperature yesterday: 68 °F (at 4:00 AM)
Average temperature yesterday: 76 °F

Past Weeks' High & Low Weather Summary

 TemperatureHumidityPressure
High90 °F (Aug 17, 2:00 PM)94% (Aug 20, 5:00 AM)29.95 "Hg (Aug 20, 5:00 AM)
Low64 °F (Aug 28, 2:00 AM)35% (Aug 27, 1:00 PM)29.56 "Hg (Aug 25, 1:00 PM)
Average76 °F69%29.77 "Hg
* Reported Aug 17 8:00 AM — Sep 1 8:00 AM, Seoul, Weather by CustomWeather, © 2015

Note: Actual official high and low records may vary slightly from our data, if they occured in-between our weather recording intervals... More about our weather records

Advertising

Seoul weather history for previous 24 hours

 ConditionsComfort  
Time TempWeatherWind HumidityBarometerVisibility
8:00 AM
Tue, Sep 1
73 °FBroken clouds.5 mph74%29.83 "Hg6 mi
7:00 AM72 °FBroken clouds.5 mph78%29.83 "Hg6 mi
6:00 AM72 °FPassing clouds.5 mph78%29.83 "Hg6 mi
5:00 AM72 °FPartly cloudy.2 mph78%29.83 "HgN/A
4:00 AM73 °FPartly cloudy.3 mph69%29.83 "HgN/A
3:00 AM75 °FPartly cloudy.3 mph65%29.83 "HgN/A
2:00 AM77 °FPartly cloudy.6 mph61%29.86 "HgN/A
1:00 AM77 °FPassing clouds.8 mph61%29.86 "HgN/A
12:00 AM77 °FPassing clouds.8 mph61%29.86 "HgN/A
11:00 PM
Mon, Aug 31
77 °FPartly cloudy.7 mph65%29.86 "HgN/A
10:00 PM77 °FPartly cloudy.3 mph69%29.86 "HgN/A
9:00 PM77 °FPartly cloudy.5 mph69%29.86 "HgN/A
8:00 PM77 °FPartly cloudy.6 mph69%29.83 "HgN/A
7:00 PM79 °FPartly sunny.7 mph61%29.83 "HgN/A
6:00 PM82 °FScattered clouds.7 mph55%29.83 "HgN/A
5:00 PM82 °FScattered clouds.7 mph62%29.83 "HgN/A
4:00 PM86 °FScattered clouds.7 mph46%29.83 "HgN/A
3:00 PM84 °FScattered clouds.7 mph51%29.83 "HgN/A
2:00 PM84 °FScattered clouds.6 mph43%29.86 "HgN/A
1:00 PM84 °FScattered clouds.5 mph48%29.86 "HgN/A
12:00 PM84 °FPassing clouds.6 mph51%29.89 "HgN/A
11:00 AM81 °FClear.6 mph54%29.89 "Hg6 mi
10:00 AM81 °FPassing clouds.5 mph58%29.92 "Hg5 mi
9:00 AM77 °FPassing clouds.5 mph69%29.89 "Hg4 mi
Weather by CustomWeather, © 2015

See weather overviewHow to use our weather pages